When you browse on this site, cookies collect data to enhance your experience and personalize the content and advertising you see.
Visit our Privacy Policy to learn more. By continuing to use the site, you agree to this use of cookies and data.
EN

Hourly Weather Satif

Today, 11 July, Saturday

Time Temperature Precipitation Wind Pressure Humidity
00:00 +27°C° 0 mm 3 mps 673 mmHg 32%
01:00 +26°C° 0 mm 3 mps 673 mmHg 33%
02:00 +26°C° 0 mm 2 mps 672 mmHg 33%
03:00 +25°C° 0 mm 2 mps 672 mmHg 34%
04:00 +26°C° 0 mm 2 mps 672 mmHg 34%
05:00 +26°C° 0 mm 3 mps 673 mmHg 34%
06:00 +27°C° 0 mm 3 mps 674 mmHg 34%
07:00 +29°C° 0 mm 5 mps 674 mmHg 31%
08:00 +32°C° 0 mm 6 mps 675 mmHg 27%
09:00 +33°C° 0 mm 7 mps 675 mmHg 24%
10:00 +34°C° 0 mm 7 mps 675 mmHg 22%
11:00 +35°C° 0 mm 7 mps 676 mmHg 20%
12:00 +36°C° 0 mm 7 mps 676 mmHg 18%
13:00 +38°C° 0 mm 7 mps 676 mmHg 17%
14:00 +38°C° 0 mm 6 mps 675 mmHg 16%
15:00 +39°C° 0 mm 6 mps 675 mmHg 15%
16:00 +36°C° 0 mm 5 mps 675 mmHg 20%
17:00 +34°C° 0 mm 5 mps 674 mmHg 24%
18:00 +33°C° 0 mm 4 mps 674 mmHg 28%
19:00 +30°C° 0 mm 3 mps 674 mmHg 32%
20:00 +29°C° 0 mm 2 mps 674 mmHg 36%
21:00 +27°C° 0 mm 1 mps 674 mmHg 40%
22:00 +27°C° 0 mm 1 mps 674 mmHg 42%
23:00 +26°C° 0 mm 1 mps 674 mmHg 43%

Tomorrow, 12 July, Sunday

Time Temperature Precipitation Wind Pressure Humidity
00:00 +25°C° 0 mm 1 mps 674 mmHg 45%
01:00 +25°C° 0 mm 1 mps 673 mmHg 46%
02:00 +24°C° 0 mm 1 mps 673 mmHg 47%
03:00 +24°C° 0 mm 1 mps 673 mmHg 48%
04:00 +24°C° 0 mm 1 mps 673 mmHg 47%
05:00 +25°C° 0 mm 1 mps 673 mmHg 45%
06:00 +25°C° 0 mm 1 mps 674 mmHg 44%
07:00 +27°C° 0 mm 1 mps 674 mmHg 39%
08:00 +28°C° 0 mm 1 mps 675 mmHg 35%
09:00 +30°C° 0 mm 2 mps 676 mmHg 31%
10:00 +31°C° 0 mm 2 mps 676 mmHg 28%
11:00 +34°C° 0 mm 3 mps 676 mmHg 24%
12:00 +35°C° 0 mm 4 mps 677 mmHg 21%
13:00 +35°C° 0 mm 4 mps 676 mmHg 20%
14:00 +35°C° 0 mm 4 mps 676 mmHg 20%
15:00 +35°C° 0 mm 4 mps 676 mmHg 19%
16:00 +34°C° 0 mm 4 mps 676 mmHg 22%
17:00 +33°C° 0 mm 4 mps 675 mmHg 26%
18:00 +32°C° 0 mm 4 mps 675 mmHg 29%
19:00 +30°C° 0 mm 4 mps 675 mmHg 33%
20:00 +28°C° 0 mm 3 mps 675 mmHg 37%
21:00 +27°C° 0 mm 2 mps 676 mmHg 41%
22:00 +26°C° 0 mm 2 mps 675 mmHg 44%
23:00 +26°C° 0 mm 2 mps 675 mmHg 46%

Day after tomorrow, 13 July, Monday

Time Temperature Precipitation Wind Pressure Humidity
00:00 +25°C° 0 mm 1 mps 674 mmHg 48%
01:00 +24°C° 0 mm 1 mps 674 mmHg 49%
02:00 +24°C° 0 mm 1 mps 673 mmHg 49%
03:00 +24°C° 0 mm 1 mps 673 mmHg 49%
04:00 +24°C° 0 mm 1 mps 673 mmHg 49%
05:00 +24°C° 0 mm 1 mps 674 mmHg 48%
06:00 +25°C° 0 mm 1 mps 674 mmHg 47%
07:00 +27°C° 0 mm 1 mps 675 mmHg 40%
08:00 +29°C° 0 mm 2 mps 675 mmHg 34%
09:00 +31°C° 0 mm 2 mps 676 mmHg 27%
10:00 +32°C° 0 mm 2 mps 676 mmHg 24%
11:00 +34°C° 0 mm 3 mps 676 mmHg 22%
12:00 +35°C° 0 mm 4 mps 676 mmHg 19%
13:00 +34°C° 0.2 mm 4 mps 675 mmHg 22%
14:00 +33°C° 0.2 mm 5 mps 675 mmHg 24%
15:00 +32°C° 0.2 mm 5 mps 674 mmHg 26%
16:00 +30°C° 0.2 mm 4 mps 674 mmHg 29%
17:00 +29°C° 0.2 mm 3 mps 674 mmHg 33%
18:00 +28°C° 0.2 mm 3 mps 674 mmHg 36%
19:00 +27°C° 0 mm 2 mps 674 mmHg 39%
20:00 +26°C° 0 mm 1 mps 674 mmHg 41%
21:00 +26°C° 0 mm 1 mps 673 mmHg 43%
22:00 +25°C° 0 mm 1 mps 673 mmHg 45%
23:00 +25°C° 0 mm 1 mps 673 mmHg 47%

14 July, Tuesday

Time Temperature Precipitation Wind Pressure Humidity
00:00 +24°C° 0 mm 1 mps 673 mmHg 49%
01:00 +24°C° 0 mm 1 mps 672 mmHg 51%
02:00 +21°C° 0 mm 0 mps 672 mmHg 52%
03:00 +21°C° 0 mm 0 mps 672 mmHg 53%
04:00 +21°C° 0 mm 0 mps 672 mmHg 51%
05:00 +24°C° 0 mm 1 mps 672 mmHg 50%
06:00 +24°C° 0 mm 1 mps 673 mmHg 48%
07:00 +26°C° 0 mm 1 mps 673 mmHg 44%
08:00 +27°C° 0 mm 1 mps 673 mmHg 39%
09:00 +28°C° 0 mm 1 mps 674 mmHg 35%
10:00 +29°C° 0 mm 1 mps 674 mmHg 33%
11:00 +30°C° 0 mm 1 mps 674 mmHg 31%
12:00 +31°C° 0 mm 1 mps 674 mmHg 29%
13:00 +31°C° 0 mm 2 mps 674 mmHg 31%
14:00 +31°C° 0 mm 3 mps 673 mmHg 33%
15:00 +32°C° 0 mm 4 mps 673 mmHg 36%
16:00 +29°C° 0 mm 4 mps 673 mmHg 40%
17:00 +28°C° 0 mm 4 mps 673 mmHg 45%
18:00 +27°C° 0 mm 4 mps 672 mmHg 49%
19:00 +26°C° 0.2 mm 4 mps 673 mmHg 54%
20:00 +25°C° 0.2 mm 3 mps 673 mmHg 58%
21:00 +22°C° 0.2 mm 3 mps 673 mmHg 63%
22:00 +23°C° 0 mm 2 mps 673 mmHg 63%
23:00 +23°C° 0 mm 2 mps 673 mmHg 63%

15 July, Wednesday

Time Temperature Precipitation Wind Pressure Humidity
00:00 +23°C° 0 mm 1 mps 673 mmHg 64%
01:00 +22°C° 0 mm 1 mps 673 mmHg 64%
02:00 +22°C° 0 mm 1 mps 673 mmHg 65%
03:00 +21°C° 0 mm 1 mps 672 mmHg 66%
04:00 +22°C° 0 mm 1 mps 673 mmHg 63%
05:00 +22°C° 0 mm 1 mps 673 mmHg 61%
06:00 +23°C° 0 mm 1 mps 673 mmHg 58%
07:00 +24°C° 0 mm 1 mps 674 mmHg 52%
08:00 +26°C° 0 mm 1 mps 674 mmHg 47%
09:00 +27°C° 0 mm 1 mps 675 mmHg 41%
10:00 +29°C° 0 mm 2 mps 675 mmHg 36%
11:00 +30°C° 0 mm 2 mps 675 mmHg 32%
12:00 +33°C° 0 mm 3 mps 676 mmHg 27%
13:00 +33°C° 0 mm 3 mps 675 mmHg 27%
14:00 +33°C° 0 mm 4 mps 675 mmHg 28%
15:00 +33°C° 0 mm 5 mps 675 mmHg 28%
16:00 +32°C° 0 mm 5 mps 675 mmHg 33%
17:00 +30°C° 0 mm 4 mps 675 mmHg 37%
18:00 +28°C° 0 mm 4 mps 674 mmHg 41%
19:00 +27°C° 0 mm 4 mps 675 mmHg 46%
20:00 +26°C° 0 mm 3 mps 675 mmHg 50%
21:00 +25°C° 0 mm 2 mps 675 mmHg 55%
22:00 +24°C° 0 mm 2 mps 675 mmHg 56%
23:00 +24°C° 0 mm 2 mps 675 mmHg 58%

16 July, Thursday

Time Temperature Precipitation Wind Pressure Humidity
00:00 +23°C° 0 mm 1 mps 674 mmHg 59%
01:00 +23°C° 0 mm 1 mps 674 mmHg 61%
02:00 +22°C° 0 mm 1 mps 674 mmHg 63%
03:00 +22°C° 0 mm 1 mps 674 mmHg 64%
04:00 +22°C° 0 mm 1 mps 674 mmHg 63%
05:00 +22°C° 0 mm 1 mps 674 mmHg 62%
06:00 +22°C° 0 mm 1 mps 675 mmHg 61%
07:00 +23°C° 0 mm 1 mps 675 mmHg 56%
08:00 +25°C° 0 mm 1 mps 676 mmHg 50%
09:00 +27°C° 0 mm 1 mps 676 mmHg 44%
10:00 +28°C° 0 mm 2 mps 676 mmHg 39%
11:00 +30°C° 0 mm 2 mps 676 mmHg 35%
12:00 +31°C° 0 mm 2 mps 676 mmHg 31%
13:00 +31°C° 0 mm 3 mps 676 mmHg 31%
14:00 +32°C° 0 mm 4 mps 676 mmHg 31%
15:00 +33°C° 0 mm 5 mps 676 mmHg 31%
16:00 +30°C° 0 mm 5 mps 675 mmHg 36%
17:00 +29°C° 0 mm 4 mps 675 mmHg 40%
18:00 +28°C° 0 mm 4 mps 674 mmHg 45%
19:00 +26°C° 0 mm 4 mps 674 mmHg 51%
20:00 +24°C° 0 mm 3 mps 674 mmHg 57%
21:00 +22°C° 0 mm 3 mps 674 mmHg 63%
22:00 +21°C° 0 mm 2 mps 674 mmHg 64%
23:00 +20°C° 0 mm 2 mps 674 mmHg 65%
Show more